Location: Pandora
(40.9481°N, 83.9611°W)
Time: 09:45:55
(UTC-04:00)

Envisat - Pass Details

Date: 23 September 2021
Orbit: 764 x 766 km, 98.2° (Epoch: 23 October)

Event Time Altitude Azimuth Distance (km) Brightness Sun altitude
Rises 06:13:11 0° 20° (NNE) 3,239 6.7 -14.2°
Reaches altitude 10° 06:15:38 10° 28° (NNE) 2,308 6.0 -13.8°
Maximum altitude 06:20:25 41° 98° (E) 1,106 4.4 -12.9°
Drops below altitude 10° 06:25:10 10° 168° (SSE) 2,292 5.5 -12.0°
Sets 06:27:35 0° 175° (S) 3,213 6.2 -11.5°
